Regional Weather Roundup
Issued by NWS

Home | Current Version | Previous Version | Text Only | Print | Product List | Glossary On
Versions: 1 2 3 4 5 6 7 8 9 10 11 12 13 14 15 16 17 18 19 20 21 22 23 24 25 26 27 28 29 30 31 32 33 34 35 36 37 38 39 40 41 42 43 44 45 46 47 48 49 50
000
ASUS43 KOAX 211110
RWRNE

WEATHER ROUNDUP FOR NEBRASKA
NATIONAL WEATHER SERVICE OMAHA NE
500 AM CST SAT JAN 21 2017

NOTES: SATELLITE DATA IS BEING USED TO AUGMENT CLOUD COVER ABOVE
       12000 FEET.
       "FAIR" INDICATES FEW OR NO CLOUDS BELOW 12,000 FEET WITH NO
       SIGNIFICANT WEATHER AND/OR OBSTRUCTIONS TO VISIBILITY.

  * THESE STATIONS DO NOT REPORT WEATHER SUCH AS RAIN...SNOW OR FOG.

NEZ001>004-019>022-054>056-211200-
NEBRASKA PANHANDLE

CITY           SKY/WX    TMP DP  RH WIND       PRES   REMARKS
SCOTTSBLUFF    CLEAR     23  19  85 NE3       29.39F
ALLIANCE       CLEAR     20  17  88 W9        29.37F WCI   9
CHADRON        CLOUDY    31  24  75 W8        29.38S WCI  23
KIMBALL        CLEAR     25  23  93 W8        29.37F WCI  16
SIDNEY         CLEAR     24  18  77 NW9       29.39F WCI  14
$$

NEZ057>060-069>072-079>082-211200-
SOUTHWEST NEBRASKA

CITY           SKY/WX    TMP DP  RH WIND       PRES   REMARKS
NORTH PLATTE   CLOUDY    25  24  96 NW5       29.40F WCI  19
IMPERIAL       CLEAR     30  25  81 W9        29.41F WCI  22
LEXINGTON      CLOUDY    31  29  94 W5        29.40S WCI  26
MCCOOK         CLEAR     30  30 100 W7        29.42S WCI  23
OGALLALA       CLEAR     28  28  96 W8        29.41S WCI  20
$$

NEZ005>010-023>029-035>040-094-211200-
NORTH CENTRAL NEBRASKA

CITY           SKY/WX    TMP DP  RH WIND       PRES   REMARKS
VALENTINE      CLOUDY    34  30  85 W10       29.35R WCI  26
AINSWORTH      CLOUDY    33  32  96 W8        29.34S WCI  26
BROKEN BOW     PTCLDY    36  33  89 W10       29.37S WCI  28
O`NEILL        CLOUDY    32  31  97 W7        29.35S WCI  26
ORD            CLOUDY    35  32  88 N5        29.36S WCI  31
THEDFORD       CLOUDY    33  32  96 SW5       29.37S WCI  29
$$

NEZ041-046>049-061>064-073>077-083>087-211200-
SOUTH CENTRAL NEBRASKA

CITY           SKY/WX    TMP DP  RH WIND       PRES   REMARKS
GRAND ISLAND   CLOUDY    34  34 100 W9        29.38S WCI  27
AURORA         MOCLDY    33  33 100 W8        29.38S WCI  26
HASTINGS       CLEAR     34  32  92 W8        29.40S WCI  27
HEBRON         MOCLDY    32  32 100 CALM      29.41S FOG
HOLDREGE       CLEAR     33  32  96 W7        29.40R WCI  27
KEARNEY *      CLEAR     34 -15  12 W7        29.39S WCI  28
YORK           PTCLDY    32  32 100 SW5       29.38F FOG     WCI  27
$$

NEZ011>018-030>034-042>045-211200-
NORTHEAST NEBRASKA

CITY           SKY/WX    TMP DP  RH WIND       PRES   REMARKS
NORFOLK        CLOUDY    35  34  96 SW7       29.35S FOG     WCI  29
ALBION         CLOUDY   N/A N/A N/A NW5       29.36S
BLAIR          FOG       39  39  99 SW6       29.36S VSB 1/4
FREMONT        CLOUDY    38  38 100 CALM      29.37F FOG
TEKAMAH        FOG       35  34  96 SE6       29.36F VSB 1/2 WCI  30
WAYNE          CLOUDY    37  37  99 SW7       29.35S FOG     WCI  31
$$

NEZ050>053-065>068-078-088>093-211200-
SOUTHEAST NEBRASKA

CITY           SKY/WX    TMP DP  RH WIND       PRES   REMARKS
LINCOLN        MOCLDY    37  36  96 S5        29.40S WCI  33
OMAHA EPPLEY   CLOUDY    41  38  89 CALM      29.38S FOG
BEATRICE       FOG       37  37 100 W9        29.40S VSB 1/2 WCI  30
FALLS CITY     CLOUDY    43  42  97 SW5       29.40S
NEBRASKA CITY  CLOUDY    41  41 100 W7        29.39S FOG
PLATTSMOUTH    CLOUDY    40  38  93 SW5       29.38S FOG
$$

NEZ044-045-051>053-067-211200-
OMAHA AREA

CITY           SKY/WX    TMP DP  RH WIND       PRES   REMARKS
OMAHA EPPLEY   CLOUDY    41  38  89 CALM      29.38S FOG
BLAIR          FOG       39  39  99 SW6       29.36S VSB 1/4
FREMONT        CLOUDY    38  38 100 CALM      29.37F FOG
MILLARD        CLOUDY    42  42  97 CALM      29.38S FOG
OFFUTT AFB     CLOUDY    40  40 100 CALM      29.38F
PLATTSMOUTH    CLOUDY    40  38  93 SW5       29.38S FOG
WAHOO          CLOUDY    38  37  97 S3        29.38R FOG
$$



USA.gov is the U.S. government's official web portal to all federal, state and local government web resources and services.